TimeCST,TemperatureF,Dew PointF,Humidity,Sea Level PressureIn,VisibilityMPH,Wind Direction,Wind SpeedMPH,Gust SpeedMPH,PrecipitationIn,Events,Conditions,WindDirDegrees,DateUTC
12:52 AM,32.0,25.0,75,30.22,10.0,SE,10.4,-,N/A,,Scattered Clouds,140,2013-03-08 06:52:00
1:52 AM,32.0,25.0,75,30.22,10.0,SE,9.2,-,N/A,,Scattered Clouds,140,2013-03-08 07:52:00
2:52 AM,32.0,25.0,75,30.21,10.0,SE,11.5,-,N/A,,Scattered Clouds,140,2013-03-08 08:52:00
3:52 AM,30.9,24.1,76,30.19,10.0,SE,8.1,-,N/A,,Partly Cloudy,140,2013-03-08 09:52:00
4:52 AM,30.9,24.1,76,30.19,9.0,ESE,6.9,-,N/A,,Clear,120,2013-03-08 10:52:00
5:52 AM,30.9,24.1,76,30.19,8.0,SE,8.1,-,N/A,,Clear,130,2013-03-08 11:52:00
6:52 AM,30.9,25.0,79,30.19,8.0,SE,10.4,-,N/A,,Clear,140,2013-03-08 12:52:00
7:52 AM,34.0,26.1,73,30.19,7.0,SE,10.4,-,N/A,,Partly Cloudy,140,2013-03-08 13:52:00
8:52 AM,37.9,27.0,65,30.19,7.0,SE,10.4,-,N/A,,Scattered Clouds,140,2013-03-08 14:52:00
9:52 AM,43.0,28.9,58,30.18,7.0,SSE,11.5,-,N/A,,Scattered Clouds,150,2013-03-08 15:52:00
10:52 AM,46.0,30.9,56,30.17,8.0,South,11.5,-,N/A,,Mostly Cloudy,170,2013-03-08 16:52:00
11:52 AM,48.9,32.0,52,30.14,9.0,SSE,10.4,-,N/A,,Mostly Cloudy,150,2013-03-08 17:52:00
12:52 PM,51.1,34.0,52,30.12,10.0,SE,16.1,-,N/A,,Overcast,140,2013-03-08 18:52:00
1:52 PM,52.0,34.0,50,30.07,10.0,SSE,16.1,-,N/A,,Overcast,150,2013-03-08 19:52:00
2:52 PM,53.1,35.1,50,30.04,10.0,SE,17.3,-,N/A,,Overcast,130,2013-03-08 20:52:00
3:52 PM,53.1,36.0,52,30.03,10.0,SE,19.6,-,N/A,,Overcast,140,2013-03-08 21:52:00
4:52 PM,51.1,36.0,56,30.01,9.0,SE,21.9,31.1,0.00,Rain,Light Rain,130,2013-03-08 22:52:00
5:52 PM,46.9,36.0,66,30.01,10.0,SE,17.3,24.2,0.00,,Overcast,140,2013-03-08 23:52:00
6:52 PM,45.0,34.0,65,30.01,10.0,SE,19.6,-,N/A,,Overcast,140,2013-03-09 00:52:00
7:52 PM,44.1,33.1,65,30.01,10.0,SSE,15.0,28.8,0.00,,Overcast,150,2013-03-09 01:52:00
8:52 PM,44.1,34.0,68,30.01,10.0,SSE,19.6,25.3,0.00,,Overcast,150,2013-03-09 02:52:00
9:52 PM,43.0,36.0,76,29.99,6.0,SE,15.0,-,0.02,Rain,Light Rain,140,2013-03-09 03:52:00
10:52 PM,42.1,37.0,82,29.96,7.0,SSE,17.3,-,0.05,Rain,Light Rain,150,2013-03-09 04:52:00
11:52 PM,42.1,37.0,82,29.93,5.0,SSE,15.0,-,0.08,Rain,Light Rain,150,2013-03-09 05:52:00